Location: Potomac
(46.8816°N, 113.5795°W)
Time: 08:53:44
(UTC+00:00)

NANOSAT C BR1 - Visible Passes

Search period start: 25 June 2022 00:00
Search period end: 05 July 2022 00:00
Orbit: 583 x 601 km, 98.0° (Epoch: 24 June)

Date Brightness Start Highest point End Pass type
(mag) Time Alt. Az. Time Alt. Az. Time Alt. Az.
25 Jun ? 08:25:47 10° ENE 08:27:14 12° E 08:28:42 10° ESE visible
25 Jun ? 09:59:05 10° N 10:03:17 74° WNW 10:06:25 17° SSW visible
26 Jun ? 08:33:48 10° ENE 08:36:05 14° E 08:38:23 10° ESE visible
26 Jun ? 10:07:52 10° N 10:12:01 60° WNW 10:15:15 16° SSW visible
27 Jun ? 08:42:06 10° NE 08:44:55 17° E 08:47:29 11° SE visible
27 Jun ? 10:16:40 10° N 10:20:44 48° WNW 10:24:04 14° SW visible
28 Jun ? 08:50:30 10° NE 08:53:44 21° E 08:56:18 13° SE visible
28 Jun ? 10:25:30 10° N 10:29:26 40° WNW 10:32:54 13° SW visible
29 Jun ? 08:59:01 10° NE 09:02:32 26° E 09:05:07 15° SE visible
29 Jun ? 10:34:21 10° N 10:38:06 33° WNW 10:41:42 11° SW visible
30 Jun ? 09:07:33 10° NNE 09:11:20 31° E 09:13:56 17° SSE visible
30 Jun ? 10:43:13 10° N 10:46:47 27° WNW 10:50:21 10° SW visible
01 Jul ? 09:16:09 10° NNE 09:20:05 38° E 09:22:44 18° SSE visible
01 Jul ? 10:52:06 10° NNW 10:55:26 23° WNW 10:58:46 10° WSW visible
02 Jul ? 09:24:46 10° NNE 09:28:51 47° E 09:31:32 20° SSE visible
02 Jul ? 11:01:03 10° NNW 11:04:04 19° WNW 11:07:05 10° WSW visible
03 Jul ? 09:33:25 10° NNE 09:37:35 58° E 09:40:19 20° S visible
04 Jul ? 09:42:05 10° NNE 09:46:19 72° ESE 09:49:06 21° S visible
